Location: Marcé
(47.5801°N, 0.3280°W)
Time: 09:40:22
(UTC+01:00)

BlueWalker 3 - Pass Details

Date: 09 December 2022
Orbit: 499 x 517 km, 53.2° (Epoch: 29 January)

Event Time Altitude Azimuth Distance (km) Brightness Sun altitude
Rises 19:41:49 0° 295° (WNW) 2,627 6.5 -24.6°
Reaches altitude 10° 19:44:09 10° 286° (WNW) 1,734 5.5 -25.0°
Maximum altitude 19:47:42 33° 221° (SW) 867 3.4 -25.6°
Enters shadow 19:48:06 32° 207° (SSW) 882 3.4 -25.6°
